Weather History for KDAA - March, 2014

Change the Weather History Date:

Monday, March 17, 2014

  Actual Average Record
Temperature  
Mean Temperature 27 °F -  
Max Temperature 30 °F 53 °F 78 °F (1999)
Min Temperature 24 °F 33 °F 24 °F (2014)
Degree Days  
Heating Degree Days 38    
Moisture  
Dew Point 24 °F    
Average Humidity 86    
Maximum Humidity 100    
Minimum Humidity 69    
Precipitation  
Precipitation 0.39 in - - ()
Snow  
Snow 0.00 in - - ()
Snow Depth 5.00 in    
Sea Level Pressure  
Sea Level Pressure 30.05 in    
Wind  
Wind Speed 5 mph (North)    
Max Wind Speed 9 mph    
Max Gust Speed -    
Visibility 6 miles    
Events Snow    
Averages and records for this station are not official NWS values.
T = Trace of Precipitation, MM = Missing Value Source: NWS Daily Summary

Daily Weather History Graph

Daily Weather History Graph

Search for Another Location

Airport or City:

Trip Planner

Search our weather history database for the weather conditions in past years. The results will help you decide how hot, cold, wet, or windy it might be!

Date:

Astronomy

Mar. 17, 2014 Rise Set
Actual Time 7:16 AM EDT 7:17 PM EDT
Civil Twilight 6:50 AM EDT 7:44 PM EDT
Nautical Twilight 6:19 AM EDT 8:15 PM EDT
Astronomical Twilight 5:48 AM EDT 8:46 PM EDT
Moon 8:31 PM EDT (3/17) 7:32 AM EDT (3/17)
Length of Visible Light 12h 53m
Length of Day
12h 00m
Full, 99% of the Moon is Illuminated
Mar 17
Full
Mar 23
Last Quarter
Mar 30
New
Apr 7
First Quarter
Apr 15
Full

Hourly Weather History & Observations

Time (EDT) Temp. Windchill Dew Point Humidity Pressure Visibility Wind Dir Wind Speed Gust Speed Precip Events Conditions
12:08 AM 28.4 °F 24.6 °F 28.4 °F 100% 30.07 in 2.0 mi NNE 3.5 mph - N/A Snow Light Snow
12:18 AM 28.4 °F 24.6 °F 28.4 °F 100% 30.06 in 1.8 mi Variable 3.5 mph - N/A Snow Light Snow
12:23 AM 28.4 °F 22.2 °F 28.4 °F 100% 30.06 in 1.5 mi Variable 5.8 mph - N/A Snow Light Snow
12:28 AM 28.4 °F 23.3 °F 28.4 °F 100% 30.06 in 1.8 mi Variable 4.6 mph - N/A Snow Light Snow
12:33 AM 28.4 °F 24.6 °F 28.4 °F 100% 30.06 in 2.5 mi North 3.5 mph - N/A Snow Light Snow
12:53 AM 30.2 °F 26.7 °F 28.4 °F 93% 30.06 in 1.8 mi Variable 3.5 mph - N/A Snow Light Snow
12:58 AM 29.5 °F - 28.0 °F 94% 30.06 in 1.2 mi NNE 2.3 mph - 0.01 in Snow Light Snow
1:03 AM 30.2 °F 25.4 °F 28.4 °F 93% 30.05 in 1.0 mi Variable 4.6 mph - N/A Snow Light Snow
1:13 AM 30.2 °F 26.7 °F 28.4 °F 93% 30.05 in 1.2 mi Variable 3.5 mph - N/A Snow Light Snow
1:28 AM 28.4 °F 24.6 °F 28.4 °F 100% 30.05 in 1.0 mi Variable 3.5 mph - N/A Snow Light Snow
1:33 AM 28.4 °F 24.6 °F 28.4 °F 100% 30.05 in 0.8 mi NNE 3.5 mph - N/A Snow Light Snow
1:43 AM 28.4 °F 22.2 °F 28.4 °F 100% 30.05 in 1.0 mi NNE 5.8 mph - N/A Snow Light Snow
1:48 AM 28.4 °F 21.2 °F 28.4 °F 100% 30.05 in 1.2 mi Variable 6.9 mph - N/A Snow Light Snow
1:53 AM 28.4 °F 22.2 °F 26.6 °F 93% 30.04 in 1.0 mi Variable 5.8 mph - N/A Snow Light Snow
1:58 AM 28.4 °F 19.7 °F 26.6 °F 93% 30.06 in 1.0 mi NNE 9.2 mph - 0.00 in Snow Light Snow
2:23 AM 28.4 °F 23.3 °F 26.6 °F 93% 30.06 in 1.2 mi Variable 4.6 mph - N/A Snow Light Snow
2:38 AM 26.6 °F 20.0 °F 24.8 °F 93% 30.06 in 1.0 mi NNE 5.8 mph - N/A Snow Light Snow
2:53 AM 26.6 °F - 26.6 °F 100% 30.05 in 1.0 mi Variable 2.3 mph - N/A Snow Light Snow
2:58 AM 27.3 °F 23.4 °F 25.9 °F 94% 30.06 in 1.0 mi Variable 3.5 mph - 0.00 in Snow Light Snow
3:03 AM 26.6 °F 22.6 °F 26.6 °F 100% 30.05 in 1.2 mi Variable 3.5 mph - N/A Snow Light Snow
3:08 AM 26.6 °F 21.2 °F 26.6 °F 100% 30.05 in 1.2 mi NNE 4.6 mph - N/A Snow Light Snow
3:43 AM 26.6 °F 22.6 °F 24.8 °F 93% 30.05 in 1.5 mi North 3.5 mph - N/A Snow Light Snow
3:58 AM 27.0 °F 23.0 °F 25.2 °F 93% 30.05 in 1.5 mi Variable 3.5 mph - 0.00 in Snow Light Snow
4:23 AM 26.6 °F 22.6 °F 24.8 °F 93% 30.04 in 1.8 mi NNE 3.5 mph - N/A Snow Light Snow
4:33 AM 26.6 °F 21.2 °F 24.8 °F 93% 30.03 in 2.0 mi North 4.6 mph - N/A Snow Light Snow
4:38 AM 26.6 °F 19.1 °F 24.8 °F 93% 30.03 in 1.8 mi Variable 6.9 mph - N/A Snow Light Snow
4:43 AM 26.6 °F 20.0 °F 23.0 °F 86% 30.03 in 1.5 mi Variable 5.8 mph - N/A Snow Light Snow
4:58 AM 25.7 °F 20.1 °F 23.5 °F 92% 30.04 in 1.8 mi Variable 4.6 mph - 0.01 in Snow Light Snow
5:03 AM 26.6 °F 22.6 °F 23.0 °F 86% 30.03 in 2.0 mi Variable 3.5 mph - N/A Snow Light Snow
5:13 AM 26.6 °F 21.2 °F 23.0 °F 86% 30.03 in 2.5 mi North 4.6 mph - N/A Snow Light Snow
5:23 AM 26.6 °F 20.0 °F 23.0 °F 86% 30.03 in 3.0 mi NNE 5.8 mph - N/A Snow Light Snow
5:38 AM 26.6 °F - 23.0 °F 86% 30.02 in 4.0 mi Variable 2.3 mph - N/A Snow Light Snow
5:53 AM 26.6 °F 21.2 °F 23.0 °F 86% 30.02 in 3.0 mi Variable 4.6 mph - N/A Snow Light Snow
5:58 AM 25.9 °F 20.3 °F 23.4 °F 90% 30.02 in 3.0 mi Variable 4.6 mph - 0.02 in Snow Light Snow
6:03 AM 26.6 °F 21.2 °F 23.0 °F 86% 30.01 in 3.0 mi North 4.6 mph - N/A Snow Light Snow
6:08 AM 26.6 °F 21.2 °F 23.0 °F 86% 30.01 in 3.0 mi Variable 4.6 mph - N/A Snow Light Snow
6:13 AM 26.6 °F 19.1 °F 23.0 °F 86% 30.01 in 2.5 mi Variable 6.9 mph - N/A Snow Light Snow
6:18 AM 26.6 °F 20.0 °F 23.0 °F 86% 30.01 in 2.0 mi Variable 5.8 mph - N/A Snow Light Snow
6:23 AM 24.8 °F 16.9 °F 23.0 °F 93% 30.01 in 1.8 mi Variable 6.9 mph - N/A Snow Light Snow
6:28 AM 24.8 °F 19.1 °F 23.0 °F 93% 30.00 in 2.5 mi Variable 4.6 mph - N/A Snow Light Snow
6:33 AM 24.8 °F 19.1 °F 23.0 °F 93% 30.01 in 3.0 mi Variable 4.6 mph - N/A Snow Light Snow
6:38 AM 24.8 °F 19.1 °F 23.0 °F 93% 30.01 in 4.0 mi North 4.6 mph - N/A Snow Light Snow
6:43 AM 24.8 °F 19.1 °F 23.0 °F 93% 30.02 in 7.0 mi Variable 4.6 mph - N/A Snow Light Snow
6:58 AM 25.7 °F 19.0 °F 22.6 °F 88% 30.02 in 10.0 mi North 5.8 mph - 0.04 in Snow Light Snow
7:22 AM 24.8 °F 17.9 °F 21.2 °F 86% 30.03 in 10.0 mi Variable 5.8 mph - N/A   Mostly Cloudy
7:33 AM 24.8 °F 16.9 °F 21.2 °F 86% 30.03 in 10.0 mi North 6.9 mph - N/A Snow Light Snow
7:53 AM 24.8 °F 19.1 °F 21.2 °F 86% 30.04 in 10.0 mi Variable 4.6 mph - N/A   Overcast
7:58 AM 25.5 °F 18.7 °F 21.4 °F 84% 30.06 in 10.0 mi North 5.8 mph - 0.03 in   Overcast
8:03 AM 24.8 °F 20.5 °F 21.2 °F 86% 30.03 in 10.0 mi Variable 3.5 mph - N/A   Overcast
8:12 AM 26.6 °F 20.0 °F 21.2 °F 80% 30.05 in 10.0 mi North 5.8 mph - N/A   Overcast
8:17 AM 26.6 °F 22.6 °F 21.2 °F 80% 30.05 in 10.0 mi Variable 3.5 mph - N/A   Overcast
8:47 AM 26.6 °F 22.6 °F 21.2 °F 80% 30.03 in 6.0 mi Variable 3.5 mph - N/A Snow Light Snow
8:58 AM 26.2 °F 18.6 °F 21.4 °F 82% 30.04 in 5.0 mi Variable 6.9 mph - 0.03 in Snow Light Snow
9:58 AM 26.8 °F 20.2 °F 21.7 °F 81% 30.07 in 6.0 mi North 5.8 mph - 0.03 in   Overcast
10:18 AM 26.6 °F 19.1 °F 21.2 °F 80% 30.06 in 7.0 mi North 6.9 mph - N/A   Overcast
10:38 AM 26.6 °F 20.0 °F 21.2 °F 80% 30.04 in 5.0 mi North 5.8 mph - N/A   Overcast
10:58 AM 27.9 °F 19.8 °F 21.9 °F 78% 30.07 in 8.0 mi North 8.1 mph - 0.03 in   Overcast
11:13 AM 28.4 °F 23.3 °F 23.0 °F 80% 30.07 in 10.0 mi North 4.6 mph - N/A   Overcast
11:14 AM 28.4 °F 22.2 °F 23.0 °F 80% 30.07 in 10.0 mi NNW 5.8 mph - N/A   Overcast
11:19 AM 28.4 °F 22.2 °F 21.2 °F 74% 30.07 in 10.0 mi North 5.8 mph - N/A   Overcast
11:37 AM 28.4 °F 19.7 °F 21.2 °F 74% 30.05 in 9.0 mi North 9.2 mph - N/A   Overcast
11:58 AM 28.6 °F 20.7 °F 21.6 °F 75% 30.07 in 6.0 mi North 8.1 mph - 0.01 in   Overcast
12:10 PM 28.4 °F 19.7 °F 21.2 °F 74% 30.05 in 9.0 mi North 9.2 mph - N/A   Overcast
12:58 PM 28.8 °F 20.2 °F 21.6 °F 74% 30.09 in 10.0 mi North 9.2 mph - 0.03 in   Mostly Cloudy
1:08 PM 28.4 °F 21.2 °F 21.2 °F 74% 30.05 in 10.0 mi Variable 6.9 mph - N/A   Mostly Cloudy
1:28 PM 28.4 °F 20.4 °F 21.2 °F 74% 30.05 in 10.0 mi NNE 8.1 mph - N/A   Mostly Cloudy
1:32 PM 28.4 °F 20.4 °F 21.2 °F 74% 30.05 in 10.0 mi North 8.1 mph - N/A   Mostly Cloudy
1:42 PM 28.4 °F 21.2 °F 21.2 °F 74% 30.05 in 10.0 mi NNE 6.9 mph - N/A   Mostly Cloudy
1:58 PM 29.1 °F 22.1 °F 21.6 °F 73% 30.06 in 10.0 mi Variable 6.9 mph - 0.04 in   Mostly Cloudy
2:58 PM 29.7 °F - 21.9 °F 73% 30.06 in 10.0 mi Variable 2.3 mph - 0.03 in   Overcast
3:43 PM 30.2 °F 26.7 °F 21.2 °F 69% 30.05 in 10.0 mi Variable 3.5 mph - N/A   Overcast
3:58 PM 29.3 °F 23.2 °F 21.6 °F 73% 30.06 in 10.0 mi NE 5.8 mph - 0.02 in   Overcast
4:38 PM 30.2 °F 25.4 °F 23.0 °F 75% 30.04 in 10.0 mi Variable 4.6 mph - N/A   Overcast
4:53 PM 30.2 °F 24.3 °F 23.0 °F 75% 30.03 in 10.0 mi Variable 5.8 mph - N/A   Overcast
4:58 PM 29.7 °F - 22.3 °F 74% 30.06 in 10.0 mi Variable 2.3 mph - 0.02 in   Overcast
5:03 PM 30.2 °F 25.4 °F 23.0 °F 75% 30.04 in 10.0 mi Variable 4.6 mph - N/A   Overcast
5:28 PM 30.2 °F 25.4 °F 23.0 °F 75% 30.05 in 10.0 mi Variable 4.6 mph - N/A   Overcast
5:33 PM 30.2 °F 24.3 °F 23.0 °F 75% 30.05 in 10.0 mi Variable 5.8 mph - N/A   Overcast
5:43 PM 30.2 °F 26.7 °F 23.0 °F 75% 30.05 in 10.0 mi Variable 3.5 mph - N/A   Overcast
5:58 PM 29.7 °F 24.7 °F 23.0 °F 76% 30.07 in 10.0 mi NNE 4.6 mph - 0.01 in   Overcast
6:13 PM 30.2 °F 24.3 °F 24.8 °F 80% 30.05 in 10.0 mi Variable 5.8 mph - N/A   Overcast
6:58 PM 29.1 °F - 25.2 °F 85% 30.07 in 9.0 mi Variable 2.3 mph - 0.01 in   Overcast
7:03 PM 28.4 °F - 24.8 °F 86% 30.06 in 9.0 mi NE 2.3 mph - N/A   Overcast
7:08 PM 28.4 °F - 24.8 °F 86% 30.06 in 9.0 mi NNE 2.3 mph - N/A   Overcast
7:48 PM 28.4 °F - 24.8 °F 86% 30.05 in 10.0 mi Variable 1.2 mph - N/A   Overcast
7:58 PM 28.9 °F 25.2 °F 24.3 °F 83% 30.07 in 10.0 mi Variable 3.5 mph - 0.01 in   Overcast
8:58 PM 29.1 °F - 23.7 °F 80% 30.11 in 10.0 mi Variable 2.3 mph - N/A   Overcast
9:23 PM 28.4 °F - 23.0 °F 80% 30.11 in 10.0 mi Variable 1.2 mph - N/A   Overcast
9:53 PM 28.4 °F - 24.8 °F 86% 30.11 in 10.0 mi NNE 2.3 mph - N/A   Overcast
9:58 PM 28.9 °F - 24.3 °F 83% 30.12 in 10.0 mi North 2.3 mph - N/A   Overcast
10:58 PM 29.1 °F - 23.4 °F 79% 30.12 in 10.0 mi NNE 1.2 mph - N/A   Overcast
11:58 PM 29.7 °F - 23.0 °F 76% 30.14 in 10.0 mi Calm Calm - 0.01 in   Overcast